Content
SEND FEEDBACK

Daily
Averages
Monthly
Summary
Australia

STIRLING NORTH, SOUTH AUSTRALIA


Home > Oceania > Australia > South Australia
Elevation: 13 feet     Latitude: 32 32S     Longitude: 137 46E

WEATHER
 
SELECT A DAY
Number of Records: 106,380;   Date Range: 2/21/03 - 10/23/14
 
SHARE

PRINT THIS DATA

[ ← Previous Day ]
WEATHER ALMANAC - FEBRUARY 13, 2013
[ Next Day → ]
[ °C ]   °F
Weather ElementAverageHighLow
Temperature76 °F89.6 °F (3:30 pm)66.2 °F (3:30 am)
Dewpoint59.5 °F66.2 °F (9:30 am)50 °F (12:30 pm)
Humidity62 %94 % (7:30 am)26 % (4:30 pm)
Barometer29.96 in30.01 in (1:30 am)29.89 in (4:30 pm)
Wind Speed11.6 mph16.1 mph (5:30 pm)
Weather ElementAverage
Visibility6.2 mi
Wind DirectionSSW (189.1 °)

Weather ElementTotal
Precipitation---
Cooling Degree Days12.9 (Base 65)
Growing Degree Days27.9 (Base 50)
Averaged from 23 records on February 13, 2013
WEATHER CONDITIONS BREAKOUT
WIND DIRECTION BREAKOUT
WEATHER BY HOUR - FEBRUARY 13, 2013
[ °C ]   °F
Local TimeTemperatureDewpointHumidityBarometerVisibilityWind DirectionWind SpeedGust SpeedPrecipitationEventsConditions
1:30 AM68.0 °F59.0 °F73 %30.01 in6.2 miSW (220°)9.2 mph
2:30 AM68.0 °F59.0 °F73 %29.98 in6.2 miSSW (210°)12.7 mph
3:30 AM66.2 °F60.8 °F83 %29.98 in6.2 miSSW (200°)12.7 mph
4:30 AM66.2 °F62.6 °F88 %29.98 in6.2 miSSW (210°)11.5 mph
5:30 AM66.2 °F62.6 °F88 %29.98 in6.2 miSSW (210°)10.4 mph
6:30 AM66.2 °F62.6 °F88 %29.98 in6.2 miSSW (210°)8.1 mph
7:30 AM66.2 °F64.4 °F94 %30.01 in6.2 miSSW (210°)9.2 mph
8:30 AM69.8 °F64.4 °F83 %30.01 in6.2 miSSW (210°)10.4 mph
9:30 AM73.4 °F66.2 °F78 %30.01 in6.2 miSouth (170°)10.4 mph
10:30 AM75.2 °F66.2 °F73 %30.01 in6.2 miSouth (170°)10.4 mph
11:30 AM77.0 °F64.4 °F65 %30.01 in6.2 miSSE (160°)10.4 mph
12:30 PM82.4 °F50.0 °F32 %29.98 in6.2 miSouth (170°)11.5 mph
1:30 PM82.4 °F51.8 °F35 %29.98 in6.2 miSouth (170°)11.5 mph
2:30 PM84.2 °F53.6 °F35 %29.95 in6.2 miSSE (160°)11.5 mph
3:30 PM89.6 °F51.8 °F27 %29.92 in6.2 miSSE (160°)11.5 mph
4:30 PM89.6 °F50.0 °F26 %29.89 in6.2 miSouth (180°)13.8 mph
5:30 PM89.6 °F50.0 °F26 %29.89 in6.2 miSouth (190°)16.1 mph
6:30 PM87.8 °F51.8 °F29 %29.89 in6.2 miSouth (180°)11.5 mph
7:30 PM78.8 °F62.6 °F57 %29.89 in6.2 miSouth (180°)16.1 mph
8:30 PM77.0 °F60.8 °F57 %29.92 in6.2 miSouth (180°)16.1 mph
9:30 PM75.2 °F64.4 °F69 %29.95 in6.2 miSouth (190°)12.7 mph
10:30 PM75.2 °F66.2 °F73 %29.95 in6.2 miSouth (190°)11.5 mph
11:30 PM73.4 °F64.4 °F73 %29.95 in6.2 miSW (220°)8.1 mph
Hourly data recorded from YPAG, located miles away from Stirling North, South Australia







STORIES FROM OUR PARTNERS